Back to catalog

COSMOS 1275 DEB

AlivePO
NORAD 39957·DEBRIS·🇷🇺 Russia

Launched Jun 4, 1981 from Plesetsk Cosmodrome

Loading…

Next Passes (next 24 hours)

TLE

FreshSource: Space-Track

Epoch: Sep 12, 2026, 10:40 UTC

1 39957U 81053NT  26255.44484003  .00000076  00000-0  63741-4 0  9995
2 39957  82.9285 150.6011 0038786  68.2219  56.8420 13.74690946615638

Track COSMOS 1275 DEB in real time with AllMySat

Download on the App Store